Princeton, MN

6:52 AM CST on November 15, 2019 (GMT -0600)
Princeton Municipal

Weather History for KPNM - August, 2019

Change the Weather History Date:

Sunday, August 11, 2019

  Actual Average Record
Temperature  
Mean Temperature 74 °F -  
Max Temperature 84 °F 76 °F 89 °F (2007)
Min Temperature 64 °F 54 °F 42 °F (2012)
Cooling Degree Days 9    
Growing Degree Days 24 (Base 50)    
Moisture  
Dew Point 64 °F    
Average Humidity 80    
Maximum Humidity 100    
Minimum Humidity 48    
Precipitation  
Precipitation 0.00 in - - ()
Sea Level Pressure  
Sea Level Pressure 29.98 in    
Wind  
Wind Speed 2 mph (NNE)    
Max Wind Speed 6 mph    
Max Gust Speed -    
Visibility 8 miles    
Events      
Averages and records for this station are not official NWS values.
T = Trace of Precipitation, MM = Missing Value Source: NWS Daily Summary

Daily Weather History Graph

Daily Weather History Graph

Search for Another Location

Airport or City:

Astronomy

Aug. 11, 2019 Rise Set
Actual Time 6:09 AM CDT 8:28 PM CDT
Civil Twilight 5:36 AM CDT 9:01 PM CDT
Nautical Twilight 4:56 AM CDT 9:42 PM CDT
Astronomical Twilight 4:09 AM CDT 10:27 PM CDT
Moon 6:15 PM CDT (8/11) 2:24 AM CDT (8/11)
Length of Visible Light 15h 24m
Length of Day
14h 18m
Waxing Gibbous, 87% of the Moon is Illuminated
Aug 11
Waxing Gibbous
Aug 15
Full
Aug 23
Last Quarter
Aug 30
New
Sep 5
First Quarter

Hourly Weather History & Observations

Time (CDT) Temp. Heat Index Dew Point Humidity Pressure Visibility Wind Dir Wind Speed Gust Speed Precip Events Conditions
12:15 AM 64.4 °F - 64.4 °F 100% 29.97 in 7.0 mi NE 4.6 mph - N/A   Overcast
12:35 AM 64.4 °F - 64.4 °F 100% 29.97 in 3.0 mi East 3.5 mph - N/A   Light Drizzle
12:58 AM 64.4 °F - 64.4 °F 100% 29.97 in 3.0 mi Calm Calm - N/A   Light Drizzle
1:16 AM 64.4 °F - 62.6 °F 94% 29.97 in 4.0 mi Calm Calm - N/A   Overcast
1:35 AM 64.4 °F - 62.6 °F 94% 29.97 in 7.0 mi Calm Calm - N/A   Overcast
1:36 AM 64.4 °F - 62.6 °F 94% 29.97 in 7.0 mi Calm Calm - N/A   Overcast
1:55 AM 64.4 °F - 64.4 °F 100% 29.97 in 10.0 mi NNE 3.5 mph - N/A   Overcast
2:19 AM 64.4 °F - 64.4 °F 100% 29.97 in 10.0 mi Calm Calm - N/A   Overcast
2:37 AM 64.4 °F - 64.4 °F 100% 29.96 in 10.0 mi Calm Calm - N/A   Overcast
2:55 AM 64.4 °F - 64.4 °F 100% 29.96 in 10.0 mi Calm Calm - N/A   Overcast
2:56 AM 64.4 °F - 64.4 °F 100% 29.96 in 10.0 mi Calm Calm - N/A   Overcast
3:15 AM 64.4 °F - 64.4 °F 100% 29.96 in 10.0 mi Calm Calm - N/A   Overcast
3:35 AM 64.4 °F - 64.4 °F 100% 29.96 in 10.0 mi Calm Calm - N/A   Overcast
3:58 AM 64.4 °F - 64.4 °F 100% 29.97 in 10.0 mi Calm Calm - N/A   Overcast
4:16 AM 64.4 °F - 64.4 °F 100% 29.96 in 10.0 mi Calm Calm - N/A   Overcast
4:35 AM 64.4 °F - 64.4 °F 100% 29.96 in 10.0 mi Calm Calm - N/A   Overcast
4:36 AM 64.4 °F - 64.4 °F 100% 29.96 in 10.0 mi Calm Calm - N/A   Overcast
4:55 AM 64.4 °F - 64.4 °F 100% 29.97 in 10.0 mi North 3.5 mph - N/A   Overcast
5:19 AM 64.4 °F - 64.4 °F 100% 29.97 in 7.0 mi Calm Calm - N/A   Overcast
5:37 AM 64.4 °F - 64.4 °F 100% 29.98 in 7.0 mi North 3.5 mph - N/A   Overcast
5:55 AM 64.4 °F - 64.4 °F 100% 29.98 in 7.0 mi North 3.5 mph - N/A   Overcast
5:56 AM 64.4 °F - 64.4 °F 100% 29.98 in 7.0 mi North 3.5 mph - N/A   Overcast
6:15 AM 64.4 °F - 64.4 °F 100% 29.99 in 7.0 mi NNW 3.5 mph - N/A   Overcast
6:16 AM 64.4 °F - 64.4 °F 100% 29.99 in 7.0 mi Calm Calm - N/A   Overcast
6:35 AM 64.4 °F - 64.4 °F 100% 30.00 in 7.0 mi North 3.5 mph - N/A   Overcast
6:40 AM 64.4 °F - 64.4 °F 100% 29.99 in 7.0 mi North 3.5 mph - N/A   Overcast
6:57 AM 64.4 °F - 64.4 °F 100% 30.00 in 4.0 mi Calm Calm - N/A   Overcast
7:16 AM 64.4 °F - 64.4 °F 100% 29.99 in 3.0 mi North 4.6 mph - N/A   Overcast
7:35 AM 64.4 °F - 64.4 °F 100% 29.99 in 1.8 mi North 4.6 mph - N/A   Overcast
7:36 AM 64.4 °F - 64.4 °F 100% 29.99 in 1.8 mi North 4.6 mph - N/A   Overcast
7:55 AM 66.2 °F - 64.4 °F 94% 29.99 in 3.0 mi North 3.5 mph - N/A   Overcast
7:56 AM 66.2 °F - 64.4 °F 94% 29.99 in 3.0 mi North 4.6 mph - N/A   Overcast
8:19 AM 66.2 °F - 64.4 °F 94% 30.01 in 1.5 mi North 3.5 mph - N/A   Overcast
8:37 AM 66.2 °F - 64.4 °F 94% 30.01 in 2.5 mi Calm Calm - N/A   Overcast
8:55 AM 66.2 °F - 64.4 °F 94% 30.00 in 4.0 mi North 3.5 mph - N/A   Overcast
8:56 AM 66.2 °F - 64.4 °F 94% 30.00 in 4.0 mi North 3.5 mph - N/A   Overcast
9:15 AM 66.2 °F - 64.4 °F 94% 30.00 in 5.0 mi NNE 3.5 mph - N/A   Overcast
9:16 AM 66.2 °F - 64.4 °F 94% 29.99 in 5.0 mi NNE 3.5 mph - N/A   Overcast
9:35 AM 68.0 °F - 66.2 °F 94% 29.99 in 10.0 mi NNE 3.5 mph - N/A   Overcast
9:40 AM 68.0 °F - 66.2 °F 94% 30.00 in 10.0 mi Calm Calm - N/A   Overcast
9:58 AM 68.0 °F - 64.4 °F 88% 30.01 in 10.0 mi Calm Calm - N/A   Overcast
10:16 AM 69.8 °F - 64.4 °F 83% 30.01 in 10.0 mi Calm Calm - N/A   Overcast
10:35 AM 71.6 °F - 64.4 °F 78% 30.03 in 10.0 mi Calm Calm - N/A   Overcast
10:36 AM 71.6 °F - 64.4 °F 78% 30.03 in 10.0 mi Calm Calm - N/A   Overcast
10:55 AM 71.6 °F - 64.4 °F 78% 30.03 in 10.0 mi Calm Calm - N/A   Overcast
11:19 AM 71.6 °F - 64.4 °F 78% 30.03 in 10.0 mi ENE 3.5 mph - N/A   Scattered Clouds
11:37 AM 75.2 °F - 64.4 °F 69% 30.03 in 10.0 mi North 5.8 mph - N/A   Clear
11:55 AM 75.2 °F - 64.4 °F 69% 30.02 in 10.0 mi ENE 5.8 mph - N/A   Clear
11:56 AM 75.2 °F - 64.4 °F 69% 30.02 in 10.0 mi ENE 5.8 mph - N/A   Clear
12:15 PM 77.0 °F - 64.4 °F 65% 30.02 in 10.0 mi NE 4.6 mph - N/A   Clear
12:35 PM 78.8 °F - 64.4 °F 61% 30.01 in 10.0 mi East 4.6 mph - N/A   Clear
12:58 PM 78.8 °F - 64.4 °F 61% 30.01 in 10.0 mi Calm Calm - N/A   Scattered Clouds
1:16 PM 78.8 °F - 64.4 °F 61% 30.01 in 10.0 mi NNE 3.5 mph - N/A   Clear
1:35 PM 80.6 °F 82.3 °F 64.4 °F 58% 30.01 in 10.0 mi NE 4.6 mph - N/A   Scattered Clouds
1:55 PM 80.6 °F 81.8 °F 62.6 °F 54% 30.00 in 10.0 mi ESE 3.5 mph - N/A   Clear
2:19 PM 82.4 °F 83.4 °F 62.6 °F 51% 30.00 in 10.0 mi NNE 5.8 mph - N/A   Clear
2:37 PM 82.4 °F 83.4 °F 62.6 °F 51% 29.99 in 10.0 mi NNE 4.6 mph - N/A   Clear
2:55 PM 82.4 °F 83.9 °F 64.4 °F 54% 29.99 in 10.0 mi North 3.5 mph - N/A   Scattered Clouds
2:56 PM 82.4 °F 83.9 °F 64.4 °F 54% 29.99 in 10.0 mi NE 3.5 mph - N/A   Scattered Clouds
3:15 PM 80.6 °F 82.3 °F 64.4 °F 58% 29.99 in 10.0 mi Calm Calm - N/A   Scattered Clouds
3:35 PM 82.4 °F 83.9 °F 64.4 °F 54% 29.99 in 10.0 mi North 4.6 mph - N/A   Mostly Cloudy
3:58 PM 82.4 °F 83.9 °F 64.4 °F 54% 29.99 in 10.0 mi East 3.5 mph - N/A   Mostly Cloudy
4:16 PM 80.6 °F 81.8 °F 62.6 °F 54% 29.98 in 10.0 mi Calm Calm - N/A   Scattered Clouds
4:35 PM 84.2 °F 85.0 °F 62.6 °F 48% 29.98 in 10.0 mi Calm Calm - N/A   Scattered Clouds
4:36 PM 84.2 °F 85.0 °F 62.6 °F 48% 29.98 in 10.0 mi Calm Calm - N/A   Scattered Clouds
4:55 PM 82.4 °F 83.4 °F 62.6 °F 51% 29.98 in 10.0 mi Calm Calm - N/A   Scattered Clouds
4:56 PM 82.4 °F 83.4 °F 62.6 °F 51% 29.98 in 10.0 mi Calm Calm - N/A   Scattered Clouds
5:19 PM 82.4 °F 83.4 °F 62.6 °F 51% 29.97 in 10.0 mi NNW 3.5 mph - N/A   Clear
5:37 PM 84.2 °F 85.0 °F 62.6 °F 48% 29.97 in 10.0 mi West 3.5 mph - N/A   Scattered Clouds
5:55 PM 82.4 °F 83.4 °F 62.6 °F 51% 29.96 in 10.0 mi West 3.5 mph - N/A   Scattered Clouds
5:56 PM 82.4 °F 83.4 °F 62.6 °F 51% 29.96 in 10.0 mi Calm Calm - N/A   Scattered Clouds
6:15 PM 82.4 °F 83.9 °F 64.4 °F 54% 29.95 in 10.0 mi Calm Calm - N/A   Clear
6:35 PM 82.4 °F 83.4 °F 62.6 °F 51% 29.95 in 10.0 mi Calm Calm - N/A   Clear
6:58 PM 80.6 °F 82.3 °F 64.4 °F 58% 29.95 in 10.0 mi Calm Calm - N/A   Clear
7:16 PM 82.4 °F 83.9 °F 64.4 °F 54% 29.95 in 10.0 mi Calm Calm - N/A   Clear
7:35 PM 80.6 °F 82.3 °F 64.4 °F 58% 29.94 in 10.0 mi Calm Calm - N/A   Clear
7:36 PM 80.6 °F 82.3 °F 64.4 °F 58% 29.94 in 10.0 mi Calm Calm - N/A   Clear
7:55 PM 78.8 °F - 66.2 °F 65% 29.94 in 5.0 mi Calm Calm - N/A   Haze
7:56 PM 78.8 °F - 66.2 °F 65% 29.94 in 5.0 mi Calm Calm - N/A   Haze
8:19 PM 75.2 °F - 66.2 °F 73% 29.94 in 10.0 mi Calm Calm - N/A   Clear
8:37 PM 73.4 °F - 66.2 °F 78% 29.95 in 10.0 mi Calm Calm - N/A   Clear
8:55 PM 71.6 °F - 66.2 °F 83% 29.96 in 10.0 mi Calm Calm - N/A   Scattered Clouds
9:15 PM 71.6 °F - 66.2 °F 83% 29.96 in 10.0 mi Calm Calm - N/A   Mostly Cloudy
9:16 PM 71.6 °F - 66.2 °F 83% 29.96 in 10.0 mi Calm Calm - N/A   Mostly Cloudy
9:35 PM 69.8 °F - 66.2 °F 88% 29.96 in 10.0 mi North 4.6 mph - N/A   Mostly Cloudy
9:40 PM 71.6 °F - 66.2 °F 83% 29.96 in 10.0 mi Calm Calm - N/A   Mostly Cloudy
9:58 PM 71.6 °F - 66.2 °F 83% 29.97 in 10.0 mi Calm Calm - N/A   Overcast
10:16 PM 75.2 °F - 66.2 °F 73% 29.97 in 10.0 mi NNE 3.5 mph - N/A   Overcast
10:35 PM 73.4 °F - 66.2 °F 78% 29.97 in 10.0 mi Calm Calm - N/A   Overcast
10:36 PM 73.4 °F - 66.2 °F 78% 29.97 in 10.0 mi Calm Calm - N/A   Mostly Cloudy
10:55 PM 71.6 °F - 66.2 °F 83% 29.97 in 10.0 mi Calm Calm - N/A   Overcast
11:19 PM 71.6 °F - 66.2 °F 83% 29.97 in 10.0 mi Calm Calm - N/A   Mostly Cloudy
11:37 PM 69.8 °F - 66.2 °F 88% 29.96 in 10.0 mi NE 3.5 mph - N/A   Scattered Clouds
11:55 PM 69.8 °F - 66.2 °F 88% 29.96 in 10.0 mi Calm Calm - N/A   Scattered Clouds
11:56 PM 69.8 °F - 66.2 °F 88% 29.96 in 10.0 mi Calm Calm - N/A   Scattered Clouds